Location: Ailingen
(47.6833°N, 9.5000°E)
Time: 08:21:21
(UTC+00:00)

Cosmos 1400 Rocket - Pass Details

Date: 18 November 2025
Orbit: 476 x 513 km, 81.1° (Epoch: 13 December)

Event Time Altitude Azimuth Distance (km) Brightness Sun altitude
Rises 17:04:03 0° 169° (SSE) 2,617 6.3 -13.7°
Reaches altitude 10° 17:06:18 10° 160° (SSE) 1,733 5.3 -14.1°
Maximum altitude 17:09:46 34° 94° (E) 853 3.3 -14.6°
Enters shadow 17:11:15 25° 51° (NE) 1,071 3.8 -14.9°
